Tracking 19193 objects as of 23-Jun-2018
HD Live streaming from Space Station
objects crossing your sky now

FENGYUN 1C DEB

Track FENGYUN 1C DEB now!
10-day predictions


NORAD ID: 38491
Int'l Code: 1999-025ESA
Perigee: 755.3 km
Apogee: 1,097.3 km
Inclination: 99.2 °
Period: 103.4 minutes
Semi major axis: 7297 km
RCS: 0.0123 m2 (small)
Launch date: May 10, 1999
Source: People's Republic of China (PRC)
Launch site: Taiyaun Space Center, China (TSC)

Note: This is SATELLITE DEBRIS
aabbcc
Your satellite tracking list
Your tracking list is empty




NASA's NSSDC Master Catalog

Two Line Element Set (TLE):
1 38491U 99025ESA 18150.04787332  .00000054  00000-0  60917-4 0  9995
2 38491  99.1617 182.4442 0234303 358.1089   1.9233 13.92709716407198
Source of the keplerian elements: AFSPC